Simultaneous Nadir Overpasses (SNOs) Predictions

Prediction of SNOs between AQUA and METOP-B Satellite Orbit:

Table of predicted SNOs for the next 14.0 days since TLE Epoch: 6/14/2013
Index Date (AQUA) Time (AQUA) Lat,Lon (AQUA) SZA (AQUA ) Date (METOP-B) Time (METOP-B) Lat,Lon (METOP-B) SZA (METOP-B ) Distance(km) Time Diff (sec)
1 06/17/2013 12:01:03 73.74, -5.73 50.36 06/17/2013 12:00:18 73.71, -5.72 50.34 3.08 45
2 06/17/2013 12:50:30 -73.82, 161.74 129.56 06/17/2013 12:50:57 -73.81, 161.84 129.58 3.17 27
3 06/20/2013 07:35:14 73.72, 60.77 50.29 06/20/2013 07:34:40 73.74, 60.74 50.32 2.63 34
4 06/20/2013 08:24:41 -73.79,-131.75 129.63 06/20/2013 08:25:20 -73.79,-131.80 129.63 1.48 39
5 06/23/2013 03:09:26 73.76, 127.14 50.35 06/23/2013 03:09:02 73.76, 127.21 50.36 2.28 24
6 06/23/2013 03:58:53 -73.83, -65.38 129.57 06/23/2013 03:59:42 -73.82, -65.32 129.59 2.19 49
7 06/25/2013 21:54:02 -73.41, 26.69 129.95 06/25/2013 21:52:51 -73.37, 25.39 129.93 41.68 71
8 06/25/2013 22:43:36 73.76,-166.41 50.42 06/25/2013 22:43:24 73.73,-166.45 50.40 3.00 12
9 06/25/2013 23:33:03 -73.83, 1.07 129.51 06/25/2013 23:34:03 -73.85, 1.15 129.50 3.26 60
10 06/28/2013 17:28:18 -73.68, 92.57 129.54 06/28/2013 17:27:07 -73.70, 92.54 129.51 1.91 71
11 06/28/2013 18:17:47 73.77, -99.99 50.56 06/28/2013 18:17:46 73.75,-100.00 50.54 2.14 1




NCC Satellite Simultaneous Nadir Overpasses (SNOs) Prediction Service
